682  
ASUS42 KTBW 291616  
RWRFL  
FLORIDA REGIONAL WEATHER ROUNDUP  
NATIONAL WEATHER SERVICE TAMPA BAY RUSKIN FL  
1200 PM EDT SAT AUG 29 2015  
 
NOTE: "FAIR" INDICATES FEW OR NO CLOUDS BELOW 12,000 FEET WITH NO  
SIGNIFICANT WEATHER AND/OR S TO VISIBILITY
.  
 
 
FLZ001>010-012>015-112-114-115-291700-  
PANHANDLE FLORIDA  
 
CITY SKY/WX TMP DP RH WIND PRES REMARKS
 
PENSACOLA CLOUDY 77 69 76 NE6 30.11R  
PENSACOLA NAS CLOUDY 78 70 76 NE7 30.10R  
MILTON NAS CLOUDY 75 73 93 NE3 30.12  
CRESTVIEW CLOUDY 77 72 84 VRB5 30.15R  
DUKE FIELD PTSUNNY 81 70 69 VRB2 30.12R  
VALPARAISO PTSUNNY 80 71 75 NE5 30.11R  
MARY ESTHER CLOUDY 75 72 88 N3 30.11  
TRI COUNTY PTSUNNY 81 74 79 CALM 30.14S  
PANAMA CITY PTSUNNY 78 72 81 CALM 30.11F  
TYNDALL AFB CLOUDY 79 73 81 NE7 30.10F  
APALACHICOLA PTSUNNY 76 72 87 NE9 30.11S  
 
STATION/POSITION SKY/WX TEMP WIND PRES WAVE SWELL
 
AIR SEA DIR/SP/G HT/PER HT/PER  
(F) (DEG/KT/KT) (MB) (FT/S) (FT/S)  
30.1N 87.6W 82 85 140/ 12/ 14 1018.2R 2/ 5  
29.2N 88.2W 85 86 CALM / 2 1019.1R 1  
28.8N 86.0W 82 85 70/ 8/ 10 1019.6R 3/ 6 3/ 6  
PANAMA CITY BEAC NOT AVBL  
CAPE SAN BLAS NOT AVBL  
TOWER C 79 60/ 11/ 13 1019.6R  
28.5N 84.5W 75 85 30/ 6/ 8 1019.5R 2/ 3 2/ 4  
 

 
FLZ011-016>038-118-127-128-134-139-239-291700-  
NORTH FLORIDA  
 
CITY SKY/WX TMP DP RH WIND PRES REMARKS
 
MARIANNA CLOUDY 79 74 84 E6 30.13S  
TALLAHASSEE LGT RAIN 79 75 87 NE7 30.13S  
PERRY PTSUNNY N/A N/A N/A CALM 30.13R  
CROSS CITY N/A 84 75 74 E5 30.11R  
LAKE CITY CLOUDY 82 75 78 E5 30.13R  
GAINESVILLE CLOUDY 84 74 71 E6 30.11R  
MAYPORT NAS PTSUNNY 85 75 72 N12 30.12S  
JACKSONVILLE PTSUNNY 83 74 74 NE12 30.12S  
JAX NAS CLOUDY 87 74 64 NE9 30.12S HX 95  
JAX CRAIG PTSUNNY 86 76 71 NE10 30.12S HX 96  
JAX CECIL PTSUNNY 84 75 74 NE6 30.12S  
FERNANDINA BEA FAIR 86 75 70 NE12 30.12S HX 95  
ST AUGUSTINE MOSUNNY 85 76 74 NE9 30.13R  
 
STATION/POSITION SKY/WX TEMP WIND PRES WAVE SWELL
 
AIR SEA DIR/SP/G HT/PER HT/PER  
(F) (DEG/KT/KT) (MB) (FT/S) (FT/S)  
SHELL POINT 75 40/ 3/ 6 N/A  
KEATON BEACH 82 90/ 3/ 4 1019.8R  
CEDAR KEY 80 90/ 7/ 7 1019.7R  
FERNANDINA NOT AVBL  
30.7N 81.3W 86 N/A 3/12 2/12  
MAYPORT NOT AVBL  
31.4N 80.9W 78 85 10/ 14/ 17 1020.8S 3/ 5 2/11  
ST AUGUSTINE 82 86 40/ 5/ 6 1020.7R  
 

 
FLZ040-043>046-052-053-057-058-063-144-291700-  
INTERIOR CENTRAL FLORIDA  
 
CITY SKY/WX TMP DP RH WIND PRES REMARKS
 
OCALA PTSUNNY 84 73 70 VRB5 30.11R  
THE VILLAGES N/A 86 77 74 E8 30.00S HX 97  
LEESBURG PTSUNNY 85 75 72 SE6 30.11R  
SANFORD PTSUNNY 87 75 67 SE7 30.09S HX 96  
ORLANDO EXEC PTSUNNY 85 78 80 E5 30.10R HX 96  
ORLANDO INTL CLOUDY 87 77 72 E8 30.09S HX 99  
KISSIMMEE CLOUDY 86 79 79 E6 30.10R HX 99  
WINTER HAVEN PTSUNNY 86 76 71 E6 30.10S HX 96  
LAKELAND MOSUNNY 88 75 66 E6 30.09S HX 97  
OKEECHOBEE PTSUNNY 88 77 70 NE6 30.07S HX 100  
 

 
FLZ041-047-054-059-064-141-147-291700-  
EAST CENTRAL FLORIDA  
 
CITY SKY/WX TMP DP RH WIND PRES REMARKS
 
ORMOND BEACH MOSUNNY 84 75 74 E8 30.10S  
DAYTONA BEACH LGT RAIN 83 78 85 E5 30.11R  
DELAND N/A 86 75 70 E3 30.11S HX 95  
TITUSVILLE PTSUNNY 88 75 66 SE12 30.09S HAZE HX 97  
CAPE CANAVERAL MOSUNNY 90 79 69 SE8 30.08S HX 105  
PATRICK AFB MOSUNNY 87 77 72 SE9 30.09R HX 99  
MELBOURNE PTSUNNY 87 76 69 E12 30.08S HX 97  
VERO BEACH MOSUNNY 89 75 63 E9 30.08S HX 99  
FT PIERCE PTSUNNY 88 77 69 E12 30.07S HX 100  
STUART MOSUNNY 88 75 66 E12 30.08R HX 97  
 
STATION/POSITION SKY/WX TEMP WIND PRES WAVE SWELL
 
AIR SEA DIR/SP/G HT/PER HT/PER  
(F) (DEG/KT/KT) (MB) (FT/S) (FT/S)  
28.5N 80.2W 84 84 120/ 8/ 10 1019.4R  
28.9N 78.5W 85 85 120/ 10/ 10 1019.9R  
TRIDENT PIER NOT AVBL  
28.4N 80.5W 86 N/A 2/11  
27.5N 80.2W 85 N/A 3/11 2/11  
 

 
FLZ050-056-061-142-242-148-248-149-249-151-251-155-255-  
160-260-291700-  
WEST CENTRAL FLORIDA  
 
CITY SKY/WX TMP DP RH WIND PRES REMARKS
 
CRYSTAL RIVER FAIR 86 73 66 SE5 30.09S  
INVERNESS PTSUNNY 86 79 79 SE5 30.10S HX 99  
BROOKSVILLE PTSUNNY 85 76 74 VRB6 30.10S  
CLEARWATER CLOUDY 85 77 77 SE10 30.08S HX 95  
TAMPA INTL CLOUDY 86 74 67 SE5 30.08S  
TAMPA EXEC PTSUNNY 88 75 66 SE3 30.09S HX 97  
PLANT CITY PTSUNNY 88 77 70 S3 30.10F HX 100  
MACDILL AFB PTSUNNY 87 81 83 SE7 30.08S HX 103  
PETER O KNIGHT PTSUNNY 90 79 70 SE5 30.08F HX 105  
ST PETERSBURG CLOUDY 86 77 74 E6 30.06S HX 97  
SARASOTA MOSUNNY 89 76 65 E9 30.05S HX 100  
VENICE FAIR 86 77 74 E9 30.07S HX 97  
 
STATION/POSITION SKY/WX TEMP WIND PRES WAVE SWELL
 
AIR SEA DIR/SP/G HT/PER HT/PER  
(F) (DEG/KT/KT) (MB) (FT/S) (FT/S)  
CEDAR KEY 80 90/ 7/ 7 1019.7R  
28.5N 84.5W 75 85 30/ 6/ 8 1019.5R 2/ 3 2/ 4  
27.3N 84.2W 86 N/A 3/ 5  
CLEARWATER BEACH NOT AVBL  
MIDDLE TAMPA BAY NOT AVBL  
VENICE 87 87 80/ 7/ 8 1017.6S  
 

 
FLZ066-069-070-075>078-162-262-165-265-291700-  
SOUTHWEST FLORIDA AND KEYS  
 
CITY SKY/WX TMP DP RH WIND PRES REMARKS
 
PUNTA GORDA MOSUNNY 87 78 74 E7 30.07F HX 100  
FT MYERS MOSUNNY 87 76 69 E7 30.05S HX 97  
SOUTHWEST INTL PTSUNNY 89 75 63 E9 30.05S HX 99  
NAPLES MOSUNNY 92 77 61 E9 30.04R HX 105  
MARATHON MOSUNNY 91 79 67 E10G20 30.00F HX 107  
KEY WEST NAS MOSUNNY 91 78 65 E15 30.00S HX 106  
KEY WEST INTL SUNNY 89 79 72 E15 30.01R HX 104  
 
STATION/POSITION SKY/WX TEMP WIND PRES WAVE SWELL
 
AIR SEA DIR/SP/G HT/PER HT/PER  
(F) (DEG/KT/KT) (MB) (FT/S) (FT/S)  
VENICE 87 87 80/ 7/ 8 1017.6S  
NAPLES NOT AVBL  
26.0N 85.6W 82 87 280/ 10/ 10 1016.9R 2/ 5 2/ 5  
DRY TORTUGAS 86 100/ 11/ 12 1016.3R  
NW FL BAY 87 100/ 14/ 16 1016.3  
SAND KEY 87 90/ 15 1016.0R  
LONG KEY 86 88 100/ 16/ 17 1016.9F  
MOLASSES REEF 86 88 90/ 14/ 16 1016.2F  
 

 
FLZ067-068-071>074-168-172>174-291700-  
SOUTHEAST FLORIDA  
 
CITY SKY/WX TMP DP RH WIND PRES REMARKS
 
W PALM BEACH PTSUNNY 89 77 67 E13 30.06S HX 101  
FT LAUDER-EXEC MOSUNNY 91 77 63 E20 30.04R HX 104  
FT LAUDERDALE PTSUNNY 89 79 72 E16 30.03S HX 104  
POMPANO BEACH MOSUNNY 90 78 68 E15 30.04S HX 104  
PEMBROKE PINES PTSUNNY 90 77 65 E15G24 30.04S HX 103  
OPA LOCKA MOSUNNY 90 77 65 E15G23 30.03F HX 103  
MIAMI PTSUNNY 91 78 65 E15 30.03S HX 106  
WEST KENDALL MOSUNNY 90 79 70 E16 30.03S HX 106  
HOMESTEAD SUNNY 90 78 68 E13 30.02S HX 104  
 
STATION/POSITION SKY/WX TEMP WIND PRES WAVE SWELL
 
AIR SEA DIR/SP/G HT/PER HT/PER  
(F) (DEG/KT/KT) (MB) (FT/S) (FT/S)  
PORT EVERGLADES 88 80/ 10/ 13 1017.2S  
SETTLEMENT POINT 86 100/ 10/ 12 1018.7F  
 

 
 
CLICK HERE TO GO TO PREVIOUS BULLETINS.

The Nexlab FL Page Main Text Page